ALA735 OMDB-OJAQ

Flight info

Callsign ALA735
Flight time 3h 3m
Altitude 40000
Route DATOB DCT TUMAK L602 GITBO M600 RAKAK DCT ULADA T136 KFA DCT TABTA DCT LABLI N697 BPN H999 HIL G662 ASH DCT DEESA DCT TAMIM DCT ELETA DCT ULINA
Aircraft B788/H-SDE1E2E3FGHIJ2J3J4J5M1RWXY/LB1D1

Departure

Time 2026-05-08 18:09
Airport Dubai International Airport (OMDB)

Arrival

Time 2026-05-08 21:13
Airport King Hussein International Airport (OJAQ)
Time Latitude Longitude Altitude Speed Heading
2026-05-08 17:12 25.25998 55.34272 20 ft 0 kts 211°
2026-05-08 17:49 25.26002 55.34274 20 ft 1 kts 211°
2026-05-08 17:49 25.26014 55.34282 20 ft 2 kts 202°
2026-05-08 17:49 25.26028 55.34287 20 ft 2 kts 192°
2026-05-08 17:49 25.26043 55.34289 20 ft 2 kts 183°
2026-05-08 17:50 25.26058 55.34289 20 ft 2 kts 173°
2026-05-08 17:50 25.26073 55.34286 20 ft 2 kts 163°
2026-05-08 17:50 25.26087 55.34280 20 ft 2 kts 154°
2026-05-08 17:50 25.26099 55.34272 20 ft 2 kts 144°
2026-05-08 17:51 25.26110 55.34262 20 ft 2 kts 135°
2026-05-08 17:51 25.26120 55.34250 20 ft 2 kts 126°
2026-05-08 17:51 25.26125 55.34243 20 ft 0 kts 121°
2026-05-08 17:51 25.26125 55.34242 20 ft 0 kts 121°
2026-05-08 17:58 25.26123 55.34246 20 ft 1 kts 118°
2026-05-08 17:58 25.26120 55.34254 20 ft 0 kts 117°
2026-05-08 17:58 25.26119 55.34255 20 ft 0 kts 116°
2026-05-08 17:58 25.26112 55.34283 20 ft 7 kts 98°
2026-05-08 17:59 25.26108 55.34347 20 ft 8 kts 92°
2026-05-08 17:59 25.26106 55.34407 21 ft 7 kts 91°
2026-05-08 17:59 25.26102 55.34460 22 ft 7 kts 102°
2026-05-08 17:59 25.26078 55.34518 23 ft 10 kts 123°
2026-05-08 18:00 25.26029 55.34602 23 ft 15 kts 121°
2026-05-08 18:00 25.25915 55.34809 26 ft 12 kts 121°
2026-05-08 18:00 25.25871 55.34888 26 ft 13 kts 121°
2026-05-08 18:01 25.25821 55.34980 26 ft 15 kts 116°
2026-05-08 18:01 25.25846 55.35067 26 ft 13 kts 34°
2026-05-08 18:01 25.25916 55.35113 26 ft 9 kts 31°
2026-05-08 18:01 25.25970 55.35149 26 ft 9 kts 31°
2026-05-08 18:02 25.26045 55.35199 26 ft 9 kts 31°
2026-05-08 18:02 25.26056 55.35207 26 ft 0 kts 30°
2026-05-08 18:02 25.26073 55.35217 26 ft 5 kts 30°
2026-05-08 18:02 25.26118 55.35257 26 ft 11 kts 64°
2026-05-08 18:03 25.26090 55.35352 27 ft 16 kts 124°
2026-05-08 18:03 25.26015 55.35485 29 ft 24 kts 121°
2026-05-08 18:03 25.25919 55.35657 30 ft 32 kts 121°
2026-05-08 18:03 25.25792 55.35886 33 ft 34 kts 121°
2026-05-08 18:04 25.25665 55.36113 35 ft 33 kts 121°
2026-05-08 18:04 25.25552 55.36319 36 ft 29 kts 121°
2026-05-08 18:04 25.25450 55.36503 37 ft 26 kts 121°
2026-05-08 18:04 25.25360 55.36665 39 ft 23 kts 121°
2026-05-08 18:05 25.25279 55.36811 40 ft 27 kts 122°
2026-05-08 18:05 25.25162 55.37022 42 ft 32 kts 122°
2026-05-08 18:05 25.25045 55.37231 42 ft 30 kts 121°
2026-05-08 18:05 25.24942 55.37419 44 ft 27 kts 121°
2026-05-08 18:06 25.24850 55.37585 45 ft 24 kts 121°
2026-05-08 18:06 25.24775 55.37721 45 ft 14 kts 121°
2026-05-08 18:06 25.24753 55.37761 45 ft 4 kts 121°
2026-05-08 18:06 25.24741 55.37782 45 ft 2 kts 121°
2026-05-08 18:07 25.24728 55.37806 45 ft 6 kts 119°
2026-05-08 18:07 25.24727 55.37872 46 ft 10 kts 45°
2026-05-08 18:07 25.24735 55.37878 46 ft 0 kts 36°
2026-05-08 18:07 25.24736 55.37880 46 ft 1 kts 36°
2026-05-08 18:08 25.24763 55.37899 47 ft 7 kts 32°
2026-05-08 18:08 25.24830 55.37936 47 ft 13 kts
2026-05-08 18:08 25.24919 55.37829 45 ft 33 kts 300°
2026-05-08 18:08 25.25129 55.37449 43 ft 86 kts 301°
2026-05-08 18:09 25.25541 55.36704 39 ft 140 kts 301°
2026-05-08 18:09 25.26132 55.35640 71 ft 182 kts 300°
2026-05-08 18:09 25.26753 55.34530 806 ft 169 kts 300°
2026-05-08 18:09 25.27349 55.33393 1293 ft 178 kts 299°
2026-05-08 18:10 25.27944 55.32129 1715 ft 191 kts 295°
2026-05-08 18:10 25.28382 55.30680 2065 ft 211 kts 280°
2026-05-08 18:10 25.28532 55.28967 2358 ft 233 kts 279°
2026-05-08 18:10 25.28822 55.27162 2955 ft 240 kts 281°
2026-05-08 18:11 25.29116 55.25358 3682 ft 243 kts 281°
2026-05-08 18:11 25.29537 55.23647 4681 ft 231 kts 289°
2026-05-08 18:11 25.30061 55.21993 5085 ft 221 kts 288°
2026-05-08 18:11 25.30382 55.20290 5497 ft 239 kts 277°
2026-05-08 18:12 25.30411 55.18455 6337 ft 241 kts 269°
2026-05-08 18:12 25.30308 55.16553 6955 ft 252 kts 268°
2026-05-08 18:12 25.30208 55.14637 7802 ft 251 kts 266°
2026-05-08 18:12 25.30106 55.12707 8652 ft 251 kts 267°
2026-05-08 18:13 25.30025 55.10794 9401 ft 253 kts 267°
2026-05-08 18:13 25.29950 55.08831 10142 ft 256 kts 267°
2026-05-08 18:13 25.29864 55.06849 10780 ft 260 kts 261°
2026-05-08 18:13 25.29343 55.04905 11164 ft 276 kts 250°
2026-05-08 18:14 25.28969 55.02679 11218 ft 307 kts 265°
2026-05-08 18:14 25.28818 55.00195 11295 ft 335 kts 265°
2026-05-08 18:14 25.28695 54.97489 11388 ft 362 kts 267°
2026-05-08 18:14 25.28603 54.94615 11584 ft 384 kts 267°
2026-05-08 18:15 25.28516 54.91660 12211 ft 392 kts 267°
2026-05-08 18:15 25.28425 54.88569 12378 ft 413 kts 266°
2026-05-08 18:15 25.28327 54.85296 12390 ft 434 kts 266°
2026-05-08 18:15 25.28228 54.81878 12414 ft 452 kts 267°
2026-05-08 18:16 25.28123 54.78407 12567 ft 464 kts 267°
2026-05-08 18:16 25.28097 54.74840 13505 ft 455 kts 272°
2026-05-08 18:16 25.28772 54.71430 14212 ft 455 kts 287°
2026-05-08 18:16 25.29674 54.68093 14721 ft 458 kts 284°
2026-05-08 18:17 25.30523 54.64676 15187 ft 462 kts 285°
2026-05-08 18:17 25.31405 54.61237 15668 ft 466 kts 284°
2026-05-08 18:17 25.32279 54.57765 16145 ft 469 kts 285°
2026-05-08 18:17 25.33168 54.54265 16612 ft 472 kts 285°
2026-05-08 18:18 25.34330 54.50861 17005 ft 476 kts 294°
2026-05-08 18:18 25.35683 54.47464 17446 ft 479 kts 292°
2026-05-08 18:18 25.36984 54.44035 17747 ft 485 kts 293°
2026-05-08 18:18 25.38321 54.40568 17711 ft 498 kts 292°
2026-05-08 18:19 25.39684 54.36991 17878 ft 505 kts 292°
2026-05-08 18:19 25.41130 54.33430 18361 ft 503 kts 295°
2026-05-08 18:19 25.42410 54.29863 18830 ft 501 kts 285°
2026-05-08 18:19 25.43335 54.26133 19081 ft 505 kts 285°
2026-05-08 18:20 25.44352 54.22340 19256 ft 510 kts 285°
2026-05-08 18:20 25.45337 54.18578 19660 ft 510 kts 285°
2026-05-08 18:20 25.46334 54.14844 20161 ft 508 kts 285°
2026-05-08 18:20 25.47330 54.11128 20665 ft 506 kts 285°
2026-05-08 18:21 25.48345 54.07400 21172 ft 504 kts 285°
2026-05-08 18:21 25.49360 54.03720 21666 ft 503 kts 285°
2026-05-08 18:21 25.50395 54.00000 22204 ft 501 kts 285°
2026-05-08 18:21 25.51412 53.96357 22730 ft 499 kts 285°
2026-05-08 18:22 25.52451 53.92690 23261 ft 498 kts 285°
2026-05-08 18:22 25.53500 53.89029 23808 ft 496 kts 285°
2026-05-08 18:22 25.54544 53.85416 24371 ft 494 kts 285°
2026-05-08 18:22 25.55591 53.81824 24952 ft 491 kts 285°
2026-05-08 18:23 25.56647 53.78236 25558 ft 489 kts 285°
2026-05-08 18:23 25.57696 53.74646 26124 ft 486 kts 284°
2026-05-08 18:23 25.58568 53.71081 26635 ft 484 kts 282°
2026-05-08 18:23 25.59467 53.67491 27183 ft 482 kts 283°
2026-05-08 18:24 25.60368 53.63918 27425 ft 487 kts 282°
2026-05-08 18:24 25.61287 53.60276 27370 ft 499 kts 283°
2026-05-08 18:24 25.62214 53.56569 27351 ft 508 kts 282°
2026-05-08 18:24 25.63172 53.52752 27557 ft 511 kts 282°
2026-05-08 18:25 25.64125 53.48961 27979 ft 509 kts 282°
2026-05-08 18:25 25.65077 53.45210 28436 ft 507 kts 283°
2026-05-08 18:25 25.66044 53.41434 28872 ft 505 kts 283°
2026-05-08 18:25 25.66938 53.37741 29303 ft 500 kts 278°
2026-05-08 18:26 25.67473 53.34161 30556 ft 477 kts 276°
2026-05-08 18:26 25.68051 53.30620 31607 ft 463 kts 276°
2026-05-08 18:26 25.68616 53.27181 32163 ft 459 kts 276°
2026-05-08 18:26 25.69188 53.23706 32597 ft 458 kts 276°
2026-05-08 18:27 25.69771 53.20204 33075 ft 456 kts 276°
2026-05-08 18:27 25.70156 53.17915 33386 ft 455 kts 276°
2026-05-08 18:27 25.70923 53.13351 33941 ft 454 kts 276°
2026-05-08 18:27 25.71505 53.09935 34417 ft 452 kts 276°
2026-05-08 18:28 25.72094 53.06549 34870 ft 450 kts 277°
2026-05-08 18:28 25.72888 53.03180 35305 ft 451 kts 281°
2026-05-08 18:28 25.73711 52.99833 35739 ft 449 kts 280°
2026-05-08 18:28 25.74625 52.96558 36109 ft 451 kts 284°
2026-05-08 18:29 25.75738 52.93289 36464 ft 451 kts 285°
2026-05-08 18:29 25.76920 52.90058 36798 ft 451 kts 289°
2026-05-08 18:29 25.79647 52.83781 36782 ft 456 kts 293°
2026-05-08 18:30 25.82663 52.77556 36815 ft 461 kts 292°
2026-05-08 18:30 25.85712 52.71207 36816 ft 466 kts 292°
2026-05-08 18:31 25.88797 52.64806 36807 ft 472 kts 292°
2026-05-08 18:31 25.91887 52.58381 36814 ft 475 kts 292°
2026-05-08 18:32 25.94849 52.51851 36808 ft 473 kts 290°
2026-05-08 18:32 25.97770 52.45257 36810 ft 473 kts 291°
2026-05-08 18:33 26.00677 52.38696 36813 ft 474 kts 291°
2026-05-08 18:33 26.03577 52.32194 36825 ft 473 kts 290°
2026-05-08 18:34 26.06503 52.25650 36967 ft 472 kts 290°
2026-05-08 18:34 26.07962 52.22398 37074 ft 471 kts 290°
2026-05-08 18:34 26.09402 52.19111 37171 ft 470 kts 289°
2026-05-08 18:35 26.12211 52.12568 37347 ft 469 kts 289°
2026-05-08 18:35 26.14939 52.05983 37509 ft 467 kts 287°
2026-05-08 18:36 26.17575 51.99356 37504 ft 470 kts 289°
2026-05-08 18:36 26.20550 51.92810 37507 ft 473 kts 290°
2026-05-08 18:37 26.23431 51.86272 37467 ft 471 kts 289°
2026-05-08 18:37 26.26289 51.79722 37521 ft 470 kts 289°
2026-05-08 18:38 26.29188 51.73170 37482 ft 474 kts 291°
2026-05-08 18:38 26.32118 51.66601 37536 ft 472 kts 290°
2026-05-08 18:39 26.34965 51.60006 37519 ft 471 kts 289°
2026-05-08 18:39 26.37816 51.53434 37527 ft 471 kts 287°
2026-05-08 18:40 26.40157 51.46663 37531 ft 468 kts 284°
2026-05-08 18:40 26.42316 51.39809 37496 ft 468 kts 283°
2026-05-08 18:41 26.44401 51.32991 37539 ft 465 kts 282°
2026-05-08 18:41 26.46580 51.26150 37480 ft 468 kts 283°
2026-05-08 18:42 26.48760 51.19291 37510 ft 466 kts 282°
2026-05-08 18:42 26.50917 51.12486 37493 ft 466 kts 282°
2026-05-08 18:43 26.53075 51.05643 37535 ft 465 kts 282°
2026-05-08 18:43 26.55226 50.98818 37569 ft 465 kts 282°
2026-05-08 18:44 26.57417 50.92012 37542 ft 468 kts 283°
2026-05-08 18:44 26.59594 50.85255 37557 ft 454 kts 282°
2026-05-08 18:45 26.61614 50.78621 37551 ft 451 kts 281°
2026-05-08 18:45 26.63562 50.71902 37558 ft 456 kts 281°
2026-05-08 18:46 26.65578 50.65110 37522 ft 460 kts 281°
2026-05-08 18:46 26.67497 50.58336 37597 ft 461 kts 281°
2026-05-08 18:47 26.69509 50.51486 37503 ft 461 kts 281°
2026-05-08 18:47 26.71437 50.44674 37553 ft 458 kts 278°
2026-05-08 18:48 26.73177 50.37800 37557 ft 458 kts 279°
2026-05-08 18:48 26.74939 50.30954 37550 ft 459 kts 278°
2026-05-08 18:49 26.76722 50.24064 37563 ft 461 kts 279°
2026-05-08 18:49 26.78500 50.17220 37751 ft 457 kts 279°
2026-05-08 18:50 26.79356 50.13856 37862 ft 454 kts 277°
2026-05-08 18:50 26.79797 50.10400 37838 ft 444 kts 265°
2026-05-08 18:50 26.79519 50.07017 37858 ft 433 kts 253°
2026-05-08 18:50 26.78682 50.03830 37906 ft 430 kts 248°
2026-05-08 18:51 26.77124 49.97335 37868 ft 433 kts 250°
2026-05-08 18:51 26.75598 49.90799 37868 ft 433 kts 251°
2026-05-08 18:52 26.74088 49.84278 37874 ft 433 kts 251°
2026-05-08 18:52 26.72581 49.77784 37872 ft 432 kts 251°
2026-05-08 18:53 26.71073 49.71289 37872 ft 432 kts 251°
2026-05-08 18:53 26.69556 49.64778 37873 ft 431 kts 251°
2026-05-08 18:54 26.68043 49.58274 37878 ft 432 kts 251°
2026-05-08 18:54 26.66517 49.51762 37879 ft 430 kts 251°
2026-05-08 18:55 26.64238 49.42036 37881 ft 429 kts 251°
2026-05-08 18:56 26.62729 49.35618 37889 ft 429 kts 250°
2026-05-08 18:56 26.61217 49.29190 37911 ft 428 kts 250°
2026-05-08 18:57 26.59731 49.22877 37905 ft 410 kts 250°
2026-05-08 18:57 26.58913 49.16720 37895 ft 406 kts 265°
2026-05-08 18:57 26.59320 49.13549 37924 ft 418 kts 275°
2026-05-08 18:58 26.60253 49.10408 37902 ft 431 kts 284°
2026-05-08 18:58 26.63067 49.04400 37896 ft 451 kts 296°
2026-05-08 18:58 26.65114 49.01664 37918 ft 465 kts 305°
2026-05-08 18:59 26.67616 48.99240 37913 ft 480 kts 314°
2026-05-08 18:59 26.73347 48.95181 37917 ft 488 kts 317°
2026-05-08 19:00 26.78984 48.90845 37926 ft 491 kts 316°
2026-05-08 19:00 26.84615 48.86398 37921 ft 496 kts 315°
2026-05-08 19:01 26.90285 48.81896 37924 ft 499 kts 315°
2026-05-08 19:01 26.95932 48.77403 37929 ft 501 kts 315°
2026-05-08 19:02 27.01642 48.72857 37934 ft 502 kts 315°
2026-05-08 19:02 27.07356 48.68294 37924 ft 502 kts 315°
2026-05-08 19:03 27.13055 48.63747 37912 ft 501 kts 315°
2026-05-08 19:03 27.18746 48.59189 37920 ft 501 kts 315°
2026-05-08 19:04 27.24429 48.54640 37916 ft 499 kts 315°
2026-05-08 19:04 27.30127 48.50073 37911 ft 499 kts 315°
2026-05-08 19:05 27.35778 48.45531 37918 ft 500 kts 315°
2026-05-08 19:05 27.41442 48.40980 37914 ft 499 kts 314°
2026-05-08 19:06 27.46816 48.36144 37907 ft 484 kts 304°
2026-05-08 19:06 27.48944 48.33254 37936 ft 469 kts 295°
2026-05-08 19:06 27.50576 48.30127 37941 ft 455 kts 286°
2026-05-08 19:06 27.51693 48.26837 37930 ft 443 kts 277°
2026-05-08 19:07 27.52299 48.23484 37958 ft 433 kts 270°
2026-05-08 19:07 27.52889 48.16828 37913 ft 423 kts 260°
2026-05-08 19:08 27.51649 48.10473 37947 ft 408 kts 243°
2026-05-08 19:08 27.49563 48.04567 37950 ft 409 kts 245°
2026-05-08 19:09 27.47490 47.98558 37950 ft 410 kts 245°
2026-05-08 19:09 27.45435 47.92580 37963 ft 409 kts 244°
2026-05-08 19:10 27.43386 47.86633 37963 ft 410 kts 245°
2026-05-08 19:10 27.41331 47.80660 37963 ft 410 kts 245°
2026-05-08 19:11 27.39258 47.74672 37962 ft 408 kts 244°
2026-05-08 19:11 27.37200 47.68717 37967 ft 408 kts 245°
2026-05-08 19:12 27.35144 47.62771 37974 ft 407 kts 245°
2026-05-08 19:12 27.33091 47.56852 37981 ft 406 kts 245°
2026-05-08 19:13 27.31023 47.50909 37986 ft 407 kts 245°
2026-05-08 19:13 27.28979 47.45014 37989 ft 407 kts 244°
2026-05-08 19:14 27.26896 47.39050 37994 ft 407 kts 245°
2026-05-08 19:14 27.24841 47.33161 37999 ft 406 kts 244°
2026-05-08 19:15 27.22764 47.27228 38003 ft 406 kts 245°
2026-05-08 19:15 27.20709 47.21355 38009 ft 404 kts 244°
2026-05-08 19:16 27.18652 47.15483 38024 ft 405 kts 244°
2026-05-08 19:16 27.16586 47.09611 38014 ft 404 kts 244°
2026-05-08 19:17 27.14522 47.03739 38027 ft 405 kts 244°
2026-05-08 19:17 27.12449 46.97867 38026 ft 403 kts 244°
2026-05-08 19:18 27.10383 46.92012 38022 ft 403 kts 244°
2026-05-08 19:18 27.08317 46.86160 38026 ft 403 kts 244°
2026-05-08 19:19 27.06253 46.80336 38025 ft 403 kts 244°
2026-05-08 19:19 27.04192 46.74510 38028 ft 403 kts 244°
2026-05-08 19:20 27.02109 46.68646 38030 ft 402 kts 244°
2026-05-08 19:20 27.00039 46.62833 38023 ft 402 kts 244°
2026-05-08 19:21 26.97953 46.56993 38024 ft 401 kts 244°
2026-05-08 19:21 26.95891 46.51188 38034 ft 402 kts 244°
2026-05-08 19:22 26.93811 46.45372 38031 ft 402 kts 243°
2026-05-08 19:22 26.92063 46.39386 38010 ft 410 kts 255°
2026-05-08 19:23 26.92165 46.32860 38041 ft 431 kts 271°
2026-05-08 19:23 26.93462 46.26288 38049 ft 430 kts 270°
2026-05-08 19:24 26.94510 46.19725 38051 ft 429 kts 270°
2026-05-08 19:24 26.95497 46.13135 38049 ft 429 kts 270°
2026-05-08 19:25 26.96473 46.06509 38051 ft 429 kts 270°
2026-05-08 19:25 26.97433 45.99899 38053 ft 429 kts 270°
2026-05-08 19:26 26.98396 45.93322 38066 ft 429 kts 270°
2026-05-08 19:26 26.99350 45.86731 38044 ft 429 kts 269°
2026-05-08 19:27 27.00301 45.80112 38047 ft 428 kts 269°
2026-05-08 19:27 27.01250 45.73561 38053 ft 427 kts 269°
2026-05-08 19:28 27.02195 45.66960 38061 ft 427 kts 270°
2026-05-08 19:28 27.03138 45.60389 38065 ft 427 kts 269°
2026-05-08 19:29 27.04076 45.53799 38080 ft 427 kts 269°
2026-05-08 19:29 27.05003 45.47269 38073 ft 424 kts 269°
2026-05-08 19:30 27.05923 45.40689 38047 ft 421 kts 266°
2026-05-08 19:30 27.06575 45.34153 38078 ft 422 kts 266°
2026-05-08 19:31 27.07286 45.27667 38087 ft 421 kts 266°
2026-05-08 19:31 27.08011 45.21116 38095 ft 422 kts 267°
2026-05-08 19:32 27.08735 45.14562 38097 ft 422 kts 266°
2026-05-08 19:32 27.09456 45.08031 38091 ft 421 kts 266°
2026-05-08 19:33 27.10168 45.01553 38088 ft 422 kts 267°
2026-05-08 19:33 27.10880 44.94971 38089 ft 423 kts 267°
2026-05-08 19:34 27.11598 44.88441 38093 ft 422 kts 267°
2026-05-08 19:34 27.12306 44.81918 38082 ft 423 kts 266°
2026-05-08 19:35 27.13009 44.75327 38074 ft 423 kts 268°
2026-05-08 19:35 27.13717 44.68807 38087 ft 421 kts 267°
2026-05-08 19:36 27.14415 44.62275 38070 ft 422 kts 268°
2026-05-08 19:36 27.15113 44.55739 38063 ft 423 kts 267°
2026-05-08 19:37 27.15813 44.49160 38064 ft 423 kts 268°
2026-05-08 19:37 27.16501 44.42619 38054 ft 425 kts 268°
2026-05-08 19:38 27.17188 44.36064 38060 ft 422 kts 268°
2026-05-08 19:38 27.17864 44.29491 38060 ft 423 kts 268°
2026-05-08 19:39 27.18555 44.22944 38070 ft 423 kts 268°
2026-05-08 19:39 27.19226 44.16383 38065 ft 424 kts 268°
2026-05-08 19:40 27.19896 44.09802 38057 ft 424 kts 268°
2026-05-08 19:40 27.20569 44.03229 38052 ft 424 kts 267°
2026-05-08 19:41 27.21237 43.96630 38048 ft 424 kts 268°
2026-05-08 19:41 27.21900 43.90040 38058 ft 425 kts 268°
2026-05-08 19:42 27.22570 43.83439 38062 ft 424 kts 266°
2026-05-08 19:42 27.23224 43.76853 38060 ft 426 kts 268°
2026-05-08 19:43 27.23882 43.70251 38065 ft 425 kts 267°
2026-05-08 19:43 27.24542 43.63664 38072 ft 424 kts 267°
2026-05-08 19:44 27.25188 43.57115 38063 ft 425 kts 268°
2026-05-08 19:44 27.25835 43.50514 38065 ft 425 kts 268°
2026-05-08 19:45 27.26487 43.43892 38069 ft 425 kts 268°
2026-05-08 19:45 27.27121 43.37322 38066 ft 426 kts 268°
2026-05-08 19:46 27.27767 43.30674 38084 ft 427 kts 268°
2026-05-08 19:46 27.28725 43.20744 38080 ft 426 kts 268°
2026-05-08 19:47 27.29358 43.14149 38083 ft 427 kts 267°
2026-05-08 19:47 27.29984 43.07532 38087 ft 427 kts 267°
2026-05-08 19:48 27.30617 43.00868 38082 ft 428 kts 268°
2026-05-08 19:48 27.31248 42.94168 38085 ft 428 kts 268°
2026-05-08 19:49 27.31877 42.87500 38087 ft 428 kts 268°
2026-05-08 19:49 27.32492 42.80848 38088 ft 429 kts 268°
2026-05-08 19:50 27.33116 42.74160 38093 ft 430 kts 268°
2026-05-08 19:50 27.33734 42.67461 38088 ft 430 kts 268°
2026-05-08 19:51 27.34346 42.60806 38095 ft 427 kts 268°
2026-05-08 19:51 27.34958 42.54149 38099 ft 428 kts 268°
2026-05-08 19:52 27.35558 42.47455 38093 ft 429 kts 268°
2026-05-08 19:52 27.36164 42.40807 38099 ft 430 kts 268°
2026-05-08 19:53 27.36759 42.34137 38115 ft 429 kts 268°
2026-05-08 19:53 27.37366 42.27426 38118 ft 431 kts 268°
2026-05-08 19:54 27.37959 42.20745 38126 ft 431 kts 268°
2026-05-08 19:54 27.38548 42.14055 38125 ft 433 kts 268°
2026-05-08 19:55 27.39143 42.07331 38128 ft 433 kts 268°
2026-05-08 19:55 27.39727 42.00578 38110 ft 435 kts 268°
2026-05-08 19:56 27.40317 41.93822 38102 ft 433 kts 268°
2026-05-08 19:56 27.40902 41.87069 38122 ft 434 kts 268°
2026-05-08 19:57 27.41478 41.80304 38129 ft 433 kts 268°
2026-05-08 19:57 27.42124 41.73514 38134 ft 439 kts 272°
2026-05-08 19:58 27.44179 41.66925 38159 ft 459 kts 290°
2026-05-08 19:58 27.45953 41.63870 38142 ft 471 kts 300°
2026-05-08 19:58 27.48172 41.61123 38152 ft 483 kts 308°
2026-05-08 19:59 27.50826 41.58710 38145 ft 494 kts 317°
2026-05-08 19:59 27.53585 41.56460 38152 ft 489 kts 314°
2026-05-08 19:59 27.58737 41.51448 38136 ft 486 kts 310°
2026-05-08 20:00 27.63737 41.46334 38129 ft 487 kts 310°
2026-05-08 20:00 27.68747 41.41154 38110 ft 487 kts 310°
2026-05-08 20:01 27.73727 41.35977 38109 ft 486 kts 310°
2026-05-08 20:01 27.78725 41.30785 38120 ft 487 kts 310°
2026-05-08 20:02 27.83703 41.25593 38118 ft 487 kts 310°
2026-05-08 20:02 27.88659 41.20430 38110 ft 487 kts 311°
2026-05-08 20:03 27.93648 41.15224 38111 ft 487 kts 310°
2026-05-08 20:03 27.98643 41.10004 38107 ft 489 kts 311°
2026-05-08 20:04 28.03658 41.04750 38117 ft 488 kts 311°
2026-05-08 20:04 28.08622 40.99548 38103 ft 488 kts 311°
2026-05-08 20:05 28.13610 40.94313 38117 ft 487 kts 312°
2026-05-08 20:05 28.18589 40.89080 38115 ft 485 kts 312°
2026-05-08 20:06 28.23531 40.83881 38110 ft 481 kts 312°
2026-05-08 20:06 28.28409 40.78740 38097 ft 477 kts 313°
2026-05-08 20:07 28.33272 40.73611 38113 ft 476 kts 313°
2026-05-08 20:07 28.38107 40.68498 38112 ft 472 kts 313°
2026-05-08 20:08 28.42905 40.63432 38123 ft 471 kts 313°
2026-05-08 20:08 28.47683 40.58367 38100 ft 468 kts 314°
2026-05-08 20:09 28.52437 40.53322 38105 ft 467 kts 314°
2026-05-08 20:09 28.57193 40.48280 38101 ft 466 kts 314°
2026-05-08 20:10 28.61913 40.43253 38112 ft 464 kts 315°
2026-05-08 20:10 28.66627 40.38240 38105 ft 462 kts 315°
2026-05-08 20:11 28.71304 40.33250 38113 ft 461 kts 315°
2026-05-08 20:11 28.75997 40.28244 38112 ft 462 kts 315°
2026-05-08 20:12 28.80680 40.23237 38112 ft 462 kts 315°
2026-05-08 20:12 28.85378 40.18206 38113 ft 460 kts 316°
2026-05-08 20:13 28.90035 40.13224 38117 ft 460 kts 316°
2026-05-08 20:13 28.94706 40.08213 38112 ft 460 kts 316°
2026-05-08 20:14 28.99373 40.03196 38102 ft 460 kts 316°
2026-05-08 20:14 29.04085 39.98129 38111 ft 460 kts 316°
2026-05-08 20:15 29.08723 39.93136 38105 ft 457 kts 317°
2026-05-08 20:15 29.13371 39.88124 38112 ft 457 kts 317°
2026-05-08 20:16 29.17976 39.83145 38109 ft 455 kts 317°
2026-05-08 20:16 29.22608 39.78133 38104 ft 455 kts 317°
2026-05-08 20:17 29.27206 39.73149 38106 ft 455 kts 317°
2026-05-08 20:17 29.31797 39.68167 38105 ft 453 kts 317°
2026-05-08 20:18 29.36345 39.63224 38095 ft 450 kts 317°
2026-05-08 20:18 29.40884 39.58287 38095 ft 450 kts 317°
2026-05-08 20:19 29.45476 39.53287 38089 ft 449 kts 317°
2026-05-08 20:19 29.50001 39.48349 38085 ft 449 kts 317°
2026-05-08 20:20 29.54522 39.43414 38090 ft 449 kts 317°
2026-05-08 20:20 29.59018 39.38480 38091 ft 445 kts 316°
2026-05-08 20:21 29.62721 39.32742 38105 ft 448 kts 300°
2026-05-08 20:21 29.64755 39.26014 38093 ft 455 kts 283°
2026-05-08 20:22 29.65153 39.18673 38101 ft 459 kts 277°
2026-05-08 20:22 29.65504 39.11381 38081 ft 458 kts 277°
2026-05-08 20:23 29.65855 39.04154 38072 ft 458 kts 278°
2026-05-08 20:23 29.66208 38.96868 38073 ft 458 kts 278°
2026-05-08 20:24 29.66557 38.89546 38084 ft 457 kts 278°
2026-05-08 20:24 29.66902 38.82319 38072 ft 454 kts 278°
2026-05-08 20:25 29.67243 38.75031 38067 ft 455 kts 278°
2026-05-08 20:25 29.67580 38.67757 38073 ft 455 kts 278°
2026-05-08 20:26 29.67911 38.60487 38079 ft 454 kts 278°
2026-05-08 20:26 29.68235 38.53279 38062 ft 453 kts 278°
2026-05-08 20:27 29.68562 38.46046 38054 ft 452 kts 278°
2026-05-08 20:27 29.68876 38.38874 38051 ft 451 kts 278°
2026-05-08 20:28 29.69192 38.31657 38051 ft 451 kts 278°
2026-05-08 20:28 29.69502 38.24423 38059 ft 451 kts 278°
2026-05-08 20:29 29.69809 38.17189 38086 ft 451 kts 278°
2026-05-08 20:29 29.70107 38.10049 38075 ft 449 kts 278°
2026-05-08 20:30 29.70405 38.02833 38088 ft 451 kts 278°
2026-05-08 20:30 29.70700 37.95635 38094 ft 447 kts 278°
2026-05-08 20:31 29.70989 37.88507 38088 ft 447 kts 278°
2026-05-08 20:31 29.71271 37.81358 38086 ft 448 kts 278°
2026-05-08 20:32 29.71553 37.74182 38109 ft 450 kts 278°
2026-05-08 20:32 29.71833 37.66974 38122 ft 447 kts 278°
2026-05-08 20:33 29.72107 37.59781 38131 ft 449 kts 278°
2026-05-08 20:33 29.72372 37.52668 38122 ft 447 kts 278°
2026-05-08 20:34 29.72641 37.45507 38120 ft 448 kts 278°
2026-05-08 20:35 29.73026 37.34821 38126 ft 446 kts 278°
2026-05-08 20:35 29.73285 37.27671 38111 ft 448 kts 278°
2026-05-08 20:36 29.73535 37.20501 38110 ft 449 kts 278°
2026-05-08 20:36 29.73783 37.13356 38117 ft 447 kts 278°
2026-05-08 20:37 29.74023 37.06235 38126 ft 446 kts 278°
2026-05-08 20:37 29.74262 36.99079 38125 ft 447 kts 278°
2026-05-08 20:38 29.74500 36.91956 38129 ft 446 kts 278°
2026-05-08 20:38 29.74731 36.84847 38120 ft 447 kts 278°
2026-05-08 20:39 29.74960 36.77731 38121 ft 446 kts 278°
2026-05-08 20:39 29.75180 36.70609 38119 ft 447 kts 278°
2026-05-08 20:40 29.74378 36.63418 38149 ft 458 kts 264°
2026-05-08 20:40 29.73093 36.56273 38093 ft 459 kts 265°
2026-05-08 20:40 29.72449 36.52668 37620 ft 464 kts 265°
2026-05-08 20:41 29.71794 36.49041 36822 ft 461 kts 265°
2026-05-08 20:41 29.71155 36.45496 36089 ft 454 kts 266°
2026-05-08 20:41 29.70513 36.41940 35387 ft 446 kts 266°
2026-05-08 20:41 29.69898 36.38506 34752 ft 439 kts 266°
2026-05-08 20:42 29.69287 36.35123 34119 ft 432 kts 267°
2026-05-08 20:42 29.68679 36.31756 33517 ft 426 kts 267°
2026-05-08 20:42 29.68078 36.28394 32939 ft 431 kts 266°
2026-05-08 20:42 29.67478 36.25020 32348 ft 443 kts 266°
2026-05-08 20:43 29.66852 36.21542 31731 ft 450 kts 265°
2026-05-08 20:43 29.66212 36.18018 31110 ft 452 kts 265°
2026-05-08 20:43 29.65558 36.14441 30479 ft 453 kts 265°
2026-05-08 20:43 29.64916 36.10916 29881 ft 454 kts 265°
2026-05-08 20:44 29.64276 36.07393 29283 ft 457 kts 264°
2026-05-08 20:44 29.63618 36.03815 28648 ft 460 kts 264°
2026-05-08 20:44 29.62964 36.00220 28027 ft 461 kts 264°
2026-05-08 20:44 29.62300 35.96605 27417 ft 463 kts 264°
2026-05-08 20:45 29.61632 35.92957 26793 ft 465 kts 263°
2026-05-08 20:45 29.60961 35.89319 26175 ft 462 kts 263°
2026-05-08 20:45 29.60301 35.85736 25595 ft 458 kts 263°
2026-05-08 20:45 29.59649 35.82218 25017 ft 453 kts 263°
2026-05-08 20:46 29.59002 35.78698 24437 ft 450 kts 263°
2026-05-08 20:46 29.58351 35.75187 23847 ft 446 kts 263°
2026-05-08 20:46 29.57710 35.71720 23273 ft 443 kts 263°
2026-05-08 20:46 29.57068 35.68262 22696 ft 438 kts 263°
2026-05-08 20:47 29.56439 35.64874 22161 ft 434 kts 262°
2026-05-08 20:47 29.55811 35.61492 21621 ft 431 kts 262°
2026-05-08 20:47 29.55188 35.58143 21100 ft 428 kts 262°
2026-05-08 20:47 29.54567 35.54814 20565 ft 426 kts 262°
2026-05-08 20:48 29.53952 35.51517 20024 ft 424 kts 261°
2026-05-08 20:48 29.53331 35.48191 19468 ft 419 kts 261°
2026-05-08 20:48 29.52740 35.44943 18894 ft 418 kts 256°
2026-05-08 20:48 29.51400 35.42006 18281 ft 423 kts 234°
2026-05-08 20:49 29.49306 35.39610 17765 ft 418 kts 228°
2026-05-08 20:49 29.47534 35.37001 17218 ft 413 kts 238°
2026-05-08 20:49 29.45763 35.34378 16687 ft 412 kts 233°
2026-05-08 20:49 29.44044 35.31821 16166 ft 403 kts 235°
2026-05-08 20:50 29.42392 35.29272 15627 ft 391 kts 239°
2026-05-08 20:50 29.41420 35.26446 15064 ft 379 kts 262°
2026-05-08 20:50 29.41553 35.23508 14542 ft 367 kts 285°
2026-05-08 20:50 29.42705 35.20986 13929 ft 350 kts 310°
2026-05-08 20:51 29.44611 35.19410 13411 ft 329 kts 337°
2026-05-08 20:51 29.46777 35.19071 12960 ft 313 kts
2026-05-08 20:51 29.48805 35.19849 12598 ft 301 kts 23°
2026-05-08 20:51 29.50729 35.20815 12305 ft 304 kts 21°
2026-05-08 20:52 29.52566 35.22007 11873 ft 309 kts 40°
2026-05-08 20:52 29.53755 35.24056 11437 ft 309 kts 72°
2026-05-08 20:52 29.53887 35.26452 11061 ft 304 kts 102°
2026-05-08 20:52 29.52958 35.28579 10676 ft 298 kts 133°
2026-05-08 20:53 29.51254 35.29843 10319 ft 291 kts 160°
2026-05-08 20:53 29.49331 35.30547 10005 ft 285 kts 161°
2026-05-08 20:53 29.47444 35.31229 9635 ft 282 kts 169°
2026-05-08 20:53 29.45524 35.31072 9224 ft 281 kts 199°
2026-05-08 20:54 29.44001 35.29759 9134 ft 267 kts 227°
2026-05-08 20:54 29.42625 35.28404 9022 ft 257 kts 206°
2026-05-08 20:54 29.41009 35.27561 9059 ft 257 kts 207°
2026-05-08 20:54 29.39715 35.26139 9012 ft 266 kts 240°
2026-05-08 20:55 29.39366 35.24078 9030 ft 271 kts 276°
2026-05-08 20:55 29.40120 35.22119 9032 ft 274 kts 311°
2026-05-08 20:55 29.41721 35.20969 9018 ft 273 kts 346°
2026-05-08 20:55 29.43599 35.21054 9014 ft 270 kts 20°
2026-05-08 20:56 29.45293 35.21991 9061 ft 272 kts 27°
2026-05-08 20:56 29.47010 35.22893 9026 ft 272 kts 25°
2026-05-08 20:56 29.48740 35.23794 9022 ft 270 kts 25°
2026-05-08 20:56 29.50459 35.24683 9016 ft 270 kts 25°
2026-05-08 20:57 29.52176 35.25565 9024 ft 271 kts 25°
2026-05-08 20:57 29.53874 35.26502 9014 ft 264 kts 33°
2026-05-08 20:57 29.55048 35.28042 8991 ft 253 kts 69°
2026-05-08 20:57 29.55154 35.29997 9024 ft 250 kts 107°
2026-05-08 20:58 29.54223 35.31663 8815 ft 254 kts 141°
2026-05-08 20:58 29.52618 35.32393 8502 ft 253 kts 176°
2026-05-08 20:58 29.50913 35.31979 8219 ft 251 kts 200°
2026-05-08 20:58 29.49276 35.31295 8030 ft 243 kts 198°
2026-05-08 20:59 29.47719 35.30615 8004 ft 232 kts 200°
2026-05-08 20:59 29.46229 35.29925 7969 ft 235 kts 200°
2026-05-08 20:59 29.44699 35.29208 7953 ft 239 kts 201°
2026-05-08 20:59 29.43145 35.28468 7950 ft 241 kts 201°
2026-05-08 21:00 29.41573 35.27719 7964 ft 242 kts 201°
2026-05-08 21:00 29.40074 35.26867 7942 ft 244 kts 216°
2026-05-08 21:00 29.39072 35.25296 7609 ft 251 kts 252°
2026-05-08 21:00 29.38822 35.23340 7334 ft 247 kts 260°
2026-05-08 21:01 29.38263 35.21491 7050 ft 245 kts 245°
2026-05-08 21:01 29.37569 35.19704 6780 ft 241 kts 249°
2026-05-08 21:01 29.37321 35.17865 6470 ft 233 kts 277°
2026-05-08 21:01 29.37490 35.16048 6307 ft 223 kts 275°
2026-05-08 21:02 29.37557 35.14327 6269 ft 208 kts 275°
2026-05-08 21:02 29.37643 35.12682 6277 ft 208 kts 275°
2026-05-08 21:02 29.37721 35.11032 6285 ft 213 kts 275°
2026-05-08 21:02 29.37805 35.09300 6192 ft 215 kts 275°
2026-05-08 21:03 29.37884 35.07579 6059 ft 214 kts 275°
2026-05-08 21:03 29.37967 35.05887 6060 ft 210 kts 278°
2026-05-08 21:03 29.38331 35.04266 6005 ft 210 kts 292°
2026-05-08 21:03 29.38793 35.02670 5737 ft 211 kts 290°
2026-05-08 21:04 29.39225 35.01060 5389 ft 212 kts 290°
2026-05-08 21:04 29.39674 34.99438 4981 ft 217 kts 290°
2026-05-08 21:04 29.40124 34.97776 4454 ft 219 kts 290°
2026-05-08 21:04 29.40639 34.96144 3978 ft 215 kts 297°
2026-05-08 21:05 29.40892 34.94465 3492 ft 219 kts 263°
2026-05-08 21:05 29.40162 34.92983 3146 ft 217 kts 223°
2026-05-08 21:05 29.38806 34.92339 2788 ft 210 kts 180°
2026-05-08 21:05 29.37481 34.92842 2437 ft 197 kts 136°
2026-05-08 21:06 29.36855 34.94108 2100 ft 180 kts 91°
2026-05-08 21:06 29.37175 34.95332 2014 ft 152 kts 43°
2026-05-08 21:06 29.38141 34.95764 2075 ft 154 kts 357°
2026-05-08 21:06 29.39161 34.95378 2084 ft 156 kts 340°
2026-05-08 21:07 29.40206 34.94973 2053 ft 156 kts 345°
2026-05-08 21:07 29.41254 34.94701 2083 ft 153 kts 358°
2026-05-08 21:07 29.42269 34.95013 2164 ft 153 kts 27°
2026-05-08 21:07 29.43217 34.95612 2276 ft 155 kts 25°
2026-05-08 21:08 29.44264 34.95983 2260 ft 157 kts 12°
2026-05-08 21:08 29.45322 34.96276 2241 ft 155 kts 17°
2026-05-08 21:08 29.46339 34.96669 2242 ft 155 kts 18°
2026-05-08 21:08 29.47376 34.97022 2243 ft 154 kts 15°
2026-05-08 21:09 29.48407 34.97371 2247 ft 154 kts 17°
2026-05-08 21:09 29.49418 34.97733 2195 ft 150 kts 16°
2026-05-08 21:09 29.50416 34.98073 2004 ft 145 kts 16°
2026-05-08 21:09 29.51374 34.98406 1844 ft 138 kts 17°
2026-05-08 21:10 29.52288 34.98724 1659 ft 136 kts 16°
2026-05-08 21:10 29.53204 34.99044 1487 ft 138 kts 17°
2026-05-08 21:10 29.54145 34.99372 1310 ft 141 kts 16°
2026-05-08 21:10 29.55090 34.99704 1122 ft 144 kts 17°
2026-05-08 21:11 29.56046 35.00032 919 ft 138 kts 16°
2026-05-08 21:11 29.56954 35.00345 737 ft 132 kts 17°
2026-05-08 21:11 29.57827 35.00654 574 ft 129 kts 14°
2026-05-08 21:11 29.58723 35.00956 427 ft 131 kts 17°
2026-05-08 21:12 29.59615 35.01265 263 ft 136 kts 16°
2026-05-08 21:12 29.60540 35.01589 182 ft 133 kts 14°
2026-05-08 21:12 29.61358 35.01875 157 ft 108 kts 17°
2026-05-08 21:12 29.61938 35.02079 147 ft 63 kts 17°
2026-05-08 21:13 29.62199 35.02169 144 ft 24 kts 17°
2026-05-08 21:13 29.62311 35.02207 144 ft 11 kts 17°
2026-05-08 21:13 29.62366 35.02254 143 ft 8 kts 67°
2026-05-08 21:13 29.62367 35.02300 145 ft 2 kts 105°
2026-05-08 21:14 29.62361 35.02321 147 ft 5 kts 107°
2026-05-08 21:14 29.62344 35.02376 151 ft 6 kts 120°
2026-05-08 21:14 29.62321 35.02397 153 ft 3 kts 162°
2026-05-08 21:14 29.62288 35.02395 154 ft 6 kts 192°
2026-05-08 21:15 29.62217 35.02372 155 ft 15 kts 196°
2026-05-08 21:15 29.62093 35.02328 156 ft 19 kts 197°